Regional Weather Roundup
Issued by NWS

Home | Current Version | Previous Version | Text Only | Print | Product List | Glossary On
Versions: 1 2 3 4 5 6 7 8 9 10 11 12 13 14 15 16 17 18 19 20 21 22 23 24 25 26 27 28 29 30 31 32 33 34 35 36 37 38 39 40 41 42 43 44 45 46 47 48 49 50
730
ASUS43 KFSD 221610
RWRSD

WEATHER ROUNDUP FOR SOUTH DAKOTA
NATIONAL WEATHER SERVICE SIOUX FALLS SD
1100 AM CDT FRI MAY 22 2015

NOTE: "FAIR" INDICATES FEW OR NO CLOUDS BELOW 12,000 FEET WITH NO
SIGNIFICANT WEATHER AND/OR OBSTRUCTIONS TO VISIBILITY.


SDZ001>005-009-010-012>017-221700-
NORTHWEST AND NORTH CENTRAL SOUTH DAKOTA

CITY           SKY/WX    TMP DP  RH WIND       PRES   REMARKS
BUFFALO          N/A     63  42  46 SE23G31   30.02S
MOBRIDGE       SUNNY     68  33  27 S10       30.14S
$$

SDZ012>016-024>037-041>051-057-063-072>074-221700-
SOUTHWEST AND SOUTH CENTRAL SOUTH DAKOTA

CITY           SKY/WX    TMP DP  RH WIND       PRES   REMARKS
RAPID CTY ARPT CLOUDY    57  46  66 S12       30.10S
PIERRE         SUNNY     67  43  41 SE13      30.15S
CUSTER         CLOUDY    46  39  76 SE12      30.11S
ELLSWORTH AFB  CLOUDY    57  46  66 S15       30.09F
PHILIP         MOSUNNY   65  44  46 SE15G21   30.12F
PINE RIDGE     CLOUDY    57  41  55 S18G25    30.11S
SPEARFISH      PTSUNNY   57  41  54 SE16G25   30.07F HAZE
WINNER         FAIR      66  38  35 SE14G21   30.18S
$$

SDZ004>011-016>023-039-040-221700-
NORTHEAST SOUTH DAKOTA

CITY           SKY/WX    TMP DP  RH WIND       PRES   REMARKS
ABERDEEN       SUNNY     68  41  37 SE7       30.17F
WATERTOWN      SUNNY     68  35  29 SE7       30.19F
BROOKINGS      SUNNY     66  39  37 SE7       30.22R
SISSETON         N/A     68  34  28 S6        30.19S
$$

SDZ017-020-022-023-036>040-048>070-221700-
SOUTHEAST SOUTH DAKOTA

CITY           SKY/WX    TMP DP  RH WIND       PRES   REMARKS
SIOUX FALLS    PTSUNNY   71  40  32 NE5       30.21S
HURON          SUNNY     69  38  32 SW3       30.19S
CHAMBERLAIN    MOSUNNY   66  41  41 E8        30.18S
MITCHELL       SUNNY     68  41  37 SE5       30.20F
YANKTON        MOSUNNY   64  39  39 CALM      30.20S
$$

ABBREVIATIONS USED IN REMARKS
   TC - TEMPERATURE IN CELSIUS
  WCI - WIND CHILL INDEX
   HX - HEAT INDEX
  VSB - VISIBILITY




USA.gov is the U.S. government's official web portal to all federal, state and local government web resources and services.